• In Schweiz
  • Länderverzeichnis
  • Für 7 Tage
  • Wassertemperatur
  • Satellitenkarten
  • Wetterkarte
  • Widgets
  • user-avatar
    Anmelden

    Stündliche Wetter Exeter

    Heute, 21 Februar, Mittwoch

    Zeit Temperatur Niederschläge Wind Luftdruck Luftfeuchtigkeit
    00:00 +3°C° 0 mm 6 m/S 761 mmHg 85%
    01:00 +2°C° 0 mm 6 m/S 761 mmHg 86%
    02:00 +2°C° 0 mm 5 m/S 761 mmHg 88%
    03:00 +2°C° 0 mm 5 m/S 761 mmHg 89%
    04:00 +2°C° 0 mm 5 m/S 761 mmHg 90%
    05:00 +2°C° 0 mm 5 m/S 761 mmHg 91%
    06:00 +1°C° 0 mm 4 m/S 762 mmHg 94%
    07:00 +1°C° 0 mm 4 m/S 762 mmHg 91%
    08:00 +3°C° 0 mm 4 m/S 762 mmHg 89%
    09:00 +3°C° 0 mm 4 m/S 762 mmHg 86%
    10:00 +4°C° 0 mm 4 m/S 762 mmHg 80%
    11:00 +5°C° 0 mm 4 m/S 762 mmHg 74%
    12:00 +6°C° 0 mm 4 m/S 762 mmHg 69%
    13:00 +6°C° 0 mm 4 m/S 762 mmHg 68%
    14:00 +6°C° 0 mm 4 m/S 761 mmHg 66%
    15:00 +7°C° 0 mm 3 m/S 761 mmHg 64%
    16:00 +5°C° 0 mm 3 m/S 761 mmHg 69%
    17:00 +4°C° 0 mm 3 m/S 761 mmHg 74%
    18:00 +3°C° 0 mm 3 m/S 761 mmHg 79%
    19:00 +3°C° 0 mm 3 m/S 761 mmHg 82%
    20:00 +2°C° 0 mm 3 m/S 761 mmHg 84%
    21:00 +2°C° 0 mm 3 m/S 761 mmHg 87%
    22:00 +2°C° 0 mm 3 m/S 760 mmHg 88%
    23:00 +2°C° 0 mm 3 m/S 760 mmHg 90%

    Morgen, 22 Februar, Donnerstag

    Zeit Temperatur Niederschläge Wind Luftdruck Luftfeuchtigkeit
    00:00 +1°C° 0 mm 3 m/S 760 mmHg 92%
    01:00 +1°C° 0 mm 3 m/S 760 mmHg 93%
    02:00 +1°C° 0 mm 3 m/S 760 mmHg 94%
    03:00 +1°C° 0 mm 3 m/S 760 mmHg 95%
    04:00 +1°C° 0 mm 3 m/S 759 mmHg 95%
    05:00 +1°C° 0 mm 3 m/S 759 mmHg 95%
    06:00 0°C° 0 mm 4 m/S 759 mmHg 95%
    07:00 0°C° 0 mm 4 m/S 759 mmHg 92%
    08:00 +1°C° 0 mm 4 m/S 759 mmHg 89%
    09:00 +1°C° 0 mm 4 m/S 759 mmHg 86%
    10:00 +2°C° 0 mm 5 m/S 759 mmHg 80%
    11:00 +3°C° 0 mm 5 m/S 759 mmHg 75%
    12:00 +5°C° 0 mm 5 m/S 759 mmHg 70%
    13:00 +5°C° 0 mm 5 m/S 759 mmHg 69%
    14:00 +5°C° 0 mm 5 m/S 758 mmHg 68%
    15:00 +5°C° 0 mm 5 m/S 758 mmHg 67%
    16:00 +4°C° 0 mm 4 m/S 758 mmHg 71%
    17:00 +3°C° 0 mm 4 m/S 758 mmHg 74%
    18:00 0°C° 0 mm 4 m/S 758 mmHg 78%
    19:00 0°C° 0 mm 4 m/S 758 mmHg 80%
    20:00 0°C° 0 mm 5 m/S 758 mmHg 81%
    21:00 -1°C° 0 mm 5 m/S 758 mmHg 83%
    22:00 -1°C° 0 mm 5 m/S 758 mmHg 82%
    23:00 -1°C° 0 mm 5 m/S 758 mmHg 82%

    übermorgen, 23 Februar, Freitag

    Zeit Temperatur Niederschläge Wind Luftdruck Luftfeuchtigkeit
    00:00 -2°C° 0 mm 5 m/S 758 mmHg 81%
    01:00 -2°C° 0 mm 5 m/S 758 mmHg 81%
    02:00 -2°C° 0 mm 5 m/S 758 mmHg 81%
    03:00 -2°C° 0 mm 5 m/S 757 mmHg 82%
    04:00 -2°C° 0 mm 5 m/S 757 mmHg 81%
    05:00 -2°C° 0 mm 5 m/S 757 mmHg 81%
    06:00 -2°C° 0 mm 5 m/S 757 mmHg 80%
    07:00 -2°C° 0 mm 6 m/S 757 mmHg 77%
    08:00 -1°C° 0 mm 7 m/S 757 mmHg 73%
    09:00 -1°C° 0 mm 7 m/S 757 mmHg 69%
    10:00 0°C° 0 mm 8 m/S 757 mmHg 67%
    11:00 +1°C° 0 mm 8 m/S 757 mmHg 64%
    12:00 +2°C° 0 mm 8 m/S 756 mmHg 62%
    13:00 +2°C° 0 mm 8 m/S 756 mmHg 61%
    14:00 +2°C° 0 mm 8 m/S 756 mmHg 61%
    15:00 +2°C° 0 mm 8 m/S 755 mmHg 61%
    16:00 +1°C° 0 mm 8 m/S 755 mmHg 65%
    17:00 0°C° 0 mm 7 m/S 755 mmHg 68%
    18:00 -1°C° 0 mm 7 m/S 754 mmHg 71%
    19:00 -1°C° 0 mm 7 m/S 754 mmHg 73%
    20:00 -2°C° 0 mm 7 m/S 754 mmHg 74%
    21:00 -2°C° 0 mm 7 m/S 754 mmHg 75%
    22:00 -2°C° 0 mm 7 m/S 754 mmHg 76%
    23:00 -2°C° 0 mm 7 m/S 754 mmHg 77%

    24 Februar, Samstag

    Zeit Temperatur Niederschläge Wind Luftdruck Luftfeuchtigkeit
    00:00 -2°C° 0 mm 6 m/S 754 mmHg 78%
    01:00 -2°C° 0 mm 6 m/S 754 mmHg 78%
    02:00 -2°C° 0 mm 6 m/S 754 mmHg 78%
    03:00 -1°C° 0 mm 5 m/S 754 mmHg 78%
    04:00 -2°C° 0 mm 6 m/S 754 mmHg 76%
    05:00 -3°C° 0 mm 6 m/S 754 mmHg 74%
    06:00 -3°C° 0 mm 7 m/S 754 mmHg 72%
    07:00 -2°C° 0 mm 7 m/S 754 mmHg 69%
    08:00 -2°C° 0 mm 7 m/S 754 mmHg 66%
    09:00 -1°C° 0 mm 8 m/S 755 mmHg 62%
    10:00 0°C° 0 mm 8 m/S 755 mmHg 61%
    11:00 +1°C° 0 mm 8 m/S 755 mmHg 61%
    12:00 +2°C° 0 mm 8 m/S 755 mmHg 60%
    13:00 +2°C° 0 mm 8 m/S 755 mmHg 61%
    14:00 +4°C° 0 mm 8 m/S 755 mmHg 62%
    15:00 +4°C° 0 mm 8 m/S 754 mmHg 63%
    16:00 +2°C° 0 mm 8 m/S 755 mmHg 65%
    17:00 +1°C° 0 mm 8 m/S 755 mmHg 68%
    18:00 0°C° 0 mm 8 m/S 755 mmHg 70%
    19:00 0°C° 0 mm 8 m/S 755 mmHg 69%
    20:00 -1°C° 0 mm 8 m/S 756 mmHg 68%
    21:00 -1°C° 0 mm 8 m/S 756 mmHg 67%
    22:00 -1°C° 0 mm 8 m/S 756 mmHg 68%
    23:00 -1°C° 0 mm 7 m/S 756 mmHg 68%

    25 Februar, Sonntag

    Zeit Temperatur Niederschläge Wind Luftdruck Luftfeuchtigkeit
    00:00 -1°C° 0 mm 7 m/S 757 mmHg 68%
    01:00 -1°C° 0 mm 7 m/S 757 mmHg 69%
    02:00 -1°C° 0 mm 7 m/S 757 mmHg 70%
    03:00 -2°C° 0 mm 8 m/S 757 mmHg 71%
    04:00 -2°C° 0 mm 8 m/S 757 mmHg 71%
    05:00 -2°C° 0 mm 8 m/S 757 mmHg 71%
    06:00 -3°C° 0 mm 9 m/S 757 mmHg 72%
    07:00 -3°C° 0 mm 9 m/S 758 mmHg 68%
    08:00 -3°C° 0 mm 9 m/S 758 mmHg 65%
    09:00 -1°C° 0 mm 9 m/S 758 mmHg 61%
    10:00 0°C° 0 mm 10 m/S 759 mmHg 59%
    11:00 0°C° 0 mm 10 m/S 759 mmHg 57%
    12:00 +1°C° 0 mm 10 m/S 759 mmHg 55%
    13:00 +1°C° 0 mm 10 m/S 759 mmHg 54%
    14:00 +1°C° 0 mm 9 m/S 759 mmHg 53%
    15:00 +2°C° 0 mm 9 m/S 759 mmHg 53%
    16:00 +1°C° 0 mm 9 m/S 759 mmHg 55%
    17:00 -1°C° 0 mm 9 m/S 759 mmHg 57%
    18:00 -3°C° 0 mm 9 m/S 759 mmHg 59%
    19:00 -3°C° 0 mm 9 m/S 760 mmHg 60%
    20:00 -4°C° 0 mm 9 m/S 760 mmHg 61%
    21:00 -4°C° 0 mm 10 m/S 760 mmHg 62%
    22:00 -4°C° 0 mm 9 m/S 761 mmHg 61%
    23:00 -4°C° 0 mm 9 m/S 761 mmHg 61%

    26 Februar, Montag

    Zeit Temperatur Niederschläge Wind Luftdruck Luftfeuchtigkeit
    00:00 -4°C° 0 mm 9 m/S 761 mmHg 61%
    01:00 -4°C° 0 mm 9 m/S 761 mmHg 61%
    02:00 -5°C° 0 mm 9 m/S 761 mmHg 60%
    03:00 -5°C° 0 mm 9 m/S 761 mmHg 59%
    04:00 -5°C° 0 mm 9 m/S 761 mmHg 59%
    05:00 -6°C° 0 mm 9 m/S 761 mmHg 60%
    06:00 -6°C° 0 mm 9 m/S 761 mmHg 60%
    07:00 -5°C° 0 mm 10 m/S 761 mmHg 58%
    08:00 -5°C° 0 mm 10 m/S 761 mmHg 56%
    09:00 -4°C° 0 mm 10 m/S 762 mmHg 54%
    10:00 -3°C° 0 mm 10 m/S 761 mmHg 52%
    11:00 -3°C° 0 mm 10 m/S 761 mmHg 51%
    12:00 -2°C° 0 mm 10 m/S 761 mmHg 49%
    13:00 -2°C° 0 mm 10 m/S 761 mmHg 49%
    14:00 0°C° 0 mm 9 m/S 761 mmHg 49%
    15:00 0°C° 0 mm 9 m/S 760 mmHg 50%
    16:00 -1°C° 0 mm 8 m/S 760 mmHg 51%
    17:00 -2°C° 0 mm 8 m/S 760 mmHg 53%
    18:00 -4°C° 0 mm 8 m/S 760 mmHg 55%
    19:00 -5°C° 0 mm 8 m/S 760 mmHg 56%
    20:00 -5°C° 0 mm 8 m/S 760 mmHg 58%
    21:00 -6°C° 0 mm 8 m/S 760 mmHg 59%
    22:00 -6°C° 0 mm 8 m/S 760 mmHg 61%
    23:00 -6°C° 0 mm 7 m/S 760 mmHg 64%
    Mehr zeigen